Location: Saint Louis
(38.6272°N, 90.1978°W)
Time: 05:10:57
(UTC-05:00)

ISS - Pass Details

Date: 27 May 2013
Orbit: 401 x 404 km, 51.6° (Epoch: 26 July)

Event Time Altitude Azimuth Distance (km) Brightness Sun altitude
Exits shadow 02:23:37 23° 16° (NNE) 919 -0.8 -26.8°
Drops below altitude 10° 02:25:15 10° 36° (NE) 1,466 0.4 -26.6°
Enters shadow 03:22:57 -67° 241° (WSW) 12,156 4.1 -21.1°
